{"data":{"norad_id":66784,"intl_designator":"2025-276DZ","name":"LEMUR-2-TARTIFLETTE","alt_names":[],"object_type":"PAYLOAD","status":"ACTIVE","operator":null,"country":"US","launch_date":"2025-11-28","launch_site_code":"AFWTR","launch_vehicle":null,"mission":null,"orbit_class":"UNKNOWN","rcs_meters":null,"size_class":null,"mass_kg":null,"dimensions":null,"purposes":["earth_obs"],"wikipedia_slug":null,"has_3d_model":false,"image_url":null,"decayed_at":null,"tle_current":{"epoch":"2026-05-25T03:17:56.385888Z","epoch_age_seconds":59196,"freshness":"FRESH","line1":"1 66784U 25276DZ  26145.13745817  .00007587  00000+0  63412-3 0  9992","line2":"2 66784  97.5251 216.5703 0013185 207.4417 152.6112 14.98715184 26744","mean_motion":14.98715184,"eccentricity":0.0013185,"inclination_deg":97.5251,"raan_deg":216.5703,"arg_perigee_deg":207.4417,"mean_anomaly_deg":152.6112,"bstar":0.00063412,"rev_number":2674,"period_min":96.082298716472,"perigee_km":561.70273718748,"apogee_km":580.02725545177,"semimajor_km":6949.0019963196,"source":"CELESTRAK","updated_at":"2026-05-25T13:38:13.576441Z"}}}